This is the latest recevied weather packets stored in our database for station/object S54Z-11. If no packets are shown the sender has not sent any weather packets the latest 10 day(s).
| Time | Temp. | Humidity | Pressure | Rain* | Wind** | Luminosity | Snow |
|---|---|---|---|---|---|---|---|
| 1777910080 | 22.78° C | 37% | 1015.9 hPa | - | - | - | - |
| 1777909180 | 23.33° C | 37% | 1015.8 hPa | - | - | - | - |
| 1777908279 | 23.33° C | 37% | 1015.9 hPa | - | - | - | - |
| 1777907379 | 23.33° C | 36% | 1015.9 hPa | - | - | - | - |
| 1777906479 | 23.33° C | 36% | 1016.1 hPa | - | - | - | - |
| 1777905586 | 23.89° C | 35% | 1016.1 hPa | - | - | - | - |
| 1777905579 | 23.89° C | 35% | 1016.1 hPa | - | - | - | - |
| 1777904679 | 23.89° C | 35% | 1016.2 hPa | - | - | - | - |
| 1777903779 | 25° C | 34% | 1016.4 hPa | - | - | - | - |
| 1777902879 | 25° C | 30% | 1016.5 hPa | - | - | - | - |
| 1777901979 | 25.56° C | 35% | 1016.7 hPa | - | - | - | - |
| 1777901079 | 25.56° C | 30% | 1016.9 hPa | - | - | - | - |
| 1777900179 | 26.11° C | 32% | 1017.1 hPa | - | - | - | - |
| 1777899279 | 26.11° C | 31% | 1017.3 hPa | - | - | - | - |
| 1777898379 | 24.44° C | 34% | 1017.5 hPa | - | - | - | - |
| 1777897478 | 24.44° C | 34% | 1017.6 hPa | - | - | - | - |
| 1777896578 | 23.33° C | 35% | 1017.6 hPa | - | - | - | - |
| 1777895678 | 23.33° C | 35% | 1017.8 hPa | - | - | - | - |
| 1777894778 | 22.78° C | 38% | 1017.9 hPa | - | - | - | - |
| 1777893878 | 23.89° C | 37% | 1018.1 hPa | - | - | - | - |
| 1777892978 | 23.89° C | 37% | 1018.3 hPa | - | - | - | - |
| 1777892078 | 23.89° C | 36% | 1018.5 hPa | - | - | - | - |
| 1777891178 | 23.89° C | 35% | 1018.6 hPa | - | - | - | - |
| 1777890279 | 23.33° C | 36% | 1018.8 hPa | - | - | - | - |
| 1777889378 | 23.89° C | 36% | 1018.8 hPa | - | - | - | - |
* Rain since midnight (hover to see other rain measurements)
** Current wind speed in m/s (hover to see current wind gust speed)